Location: Soapstone Prairie Natural Area
(40.9437°N, 105.0829°W)
Time: 15:35:14
(UTC-06:00)

ISS - Visible Passes

Search period start: 21 October 2014 00:00
Search period end: 31 October 2014 00:00
Orbit: 413 x 416 km, 51.6° (Epoch: 21 October)

Date Brightness Start Highest point End Pass type
(mag) Time Alt. Az. Time Alt. Az. Time Alt. Az.
21 Oct -1.7 20:02:47 10° NW 20:04:50 29° NNW 20:04:50 29° NNW visible
22 Oct -2.0 19:13:51 10° NW 19:16:46 27° NNE 19:17:51 22° ENE visible
22 Oct 0.1 20:50:22 10° WNW 20:50:43 12° WNW 20:50:43 12° WNW visible
23 Oct -2.5 20:01:11 10° NW 20:03:47 51° WNW 20:03:47 51° WNW visible
24 Oct -3.1 19:12:04 10° NW 19:15:22 56° NNE 19:16:57 27° ESE visible
24 Oct 0.2 20:49:33 10° W 20:49:50 11° W 20:49:50 11° W visible
25 Oct -1.6 19:59:48 10° WNW 20:02:44 29° SW 20:03:08 28° SSW visible
26 Oct -2.6 19:10:21 10° WNW 19:13:37 53° SW 19:16:36 12° SE visible
27 Oct -0.1 19:59:47 10° WSW 20:00:35 11° SW 20:01:24 10° SW visible
28 Oct -0.5 19:09:03 10° W 19:11:30 19° SW 19:13:56 10° S visible
